Hatteras, NC

3:36 PM EDT on July 26, 2017 (GMT -0400)
Mitchell

Weather History for KHSE - August, 2012

Change the Weather History Date:

Thursday, August 16, 2012

  Actual Average Record
Temperature  
Mean Temperature 81 °F 79 °F  
Max Temperature 87 °F 84 °F 94 °F (2016)
Min Temperature 74 °F 73 °F 59 °F (1983)
Degree Days  
Heating Degree Days 0 0  
Month to date heating degree days 0 0  
Since 1 June heating degree days 0 3  
Since 1 July heating degree days 0 0  
Cooling Degree Days 16 14  
Month to date cooling degree days 233 224  
Year to date cooling degree days 1414 1112  
Since 1 June cooling degree days 1089 969  
Growing Degree Days 31 (Base 50)    
Moisture  
Dew Point 71 °F    
Average Humidity 71    
Maximum Humidity 87    
Minimum Humidity 55    
Precipitation  
Precipitation 0.00 in 0.22 in 2.57 in (1899)
Month to date precipitation 3.48 3.34  
Year to date precipitation 34.38 33.60  
Snow  
Snow 0.00 in - - ()
Month to date snowfall 0.0  
Since 1 July snowfall 0.0  
Snow Depth 0.00 in    
Sea Level Pressure  
Sea Level Pressure 29.96 in    
Wind  
Wind Speed 3 mph (NE)    
Max Wind Speed 6 mph    
Max Gust Speed -    
Visibility 9 miles    
Events      
T = Trace of Precipitation, MM = Missing Value Source: NWS Daily Summary

Daily Weather History Graph

Daily Weather History Graph

Search for Another Location

Airport or City:

Trip Planner

Search our weather history database for the weather conditions in past years. The results will help you decide how hot, cold, wet, or windy it might be!

Date:

Astronomy

Aug. 16, 2012 Rise Set
Actual Time 6:23 AM EDT 7:49 PM EDT
Civil Twilight 5:56 AM EDT 8:16 PM EDT
Nautical Twilight 5:24 AM EDT 8:48 PM EDT
Astronomical Twilight 4:50 AM EDT 9:21 PM EDT
Moon 5:19 AM EDT (8/16) 6:58 PM EDT (8/16)
Length of Visible Light 14h 19m
Length of Day
13h 26m
Waning Crescent, 1% of the Moon is Illuminated
Aug 16
Waning Crescent
Aug 17
New
Aug 24
First Quarter
Aug 31
Full
Sep 8
Last Quarter

Hourly Weather History & Observations

Time (EDT) Temp. Heat Index Dew Point Humidity Pressure Visibility Wind Dir Wind Speed Gust Speed Precip Events Conditions
12:51 AM 75.0 °F - 71.1 °F 87% 29.92 in 9.0 mi Calm Calm - N/A   Clear
1:47 AM 75.2 °F - 71.6 °F 89% 29.91 in 4.0 mi West 3.5 mph - N/A   Partly Cloudy
1:51 AM 75.0 °F - 72.0 °F 90% 29.91 in 5.0 mi Calm Calm - N/A   Partly Cloudy
2:51 AM 75.9 °F - 72.0 °F 87% 29.90 in 5.0 mi Calm Calm - N/A   Clear
3:51 AM 78.1 °F - 73.0 °F 84% 29.90 in 10.0 mi WNW 4.6 mph - N/A   Clear
4:51 AM 78.1 °F - 72.0 °F 81% 29.91 in 10.0 mi NW 4.6 mph - N/A   Clear
5:51 AM 77.0 °F - 72.0 °F 84% 29.93 in 10.0 mi NW 5.8 mph - N/A   Clear
6:51 AM 78.1 °F - 72.0 °F 81% 29.95 in 10.0 mi Variable 3.5 mph - N/A   Mostly Cloudy
7:51 AM 79.0 °F - 73.0 °F 82% 29.96 in 10.0 mi NNE 5.8 mph - N/A   Scattered Clouds
8:51 AM 81.0 °F 85.8 °F 73.0 °F 77% 29.97 in 10.0 mi Variable 4.6 mph - N/A   Scattered Clouds
9:44 AM 82.4 °F 88.2 °F 73.4 °F 74% 29.98 in 10.0 mi North 6.9 mph - N/A   Overcast
9:51 AM 82.0 °F 87.4 °F 73.0 °F 74% 29.98 in 10.0 mi Variable 5.8 mph - N/A   Mostly Cloudy
10:04 AM 82.4 °F 88.2 °F 73.4 °F 74% 29.98 in 10.0 mi Variable 3.5 mph - N/A   Scattered Clouds
10:51 AM 84.0 °F 90.2 °F 73.0 °F 69% 29.99 in 10.0 mi Calm Calm - N/A   Partly Cloudy
11:51 AM 84.9 °F 90.7 °F 72.0 °F 65% 29.99 in 10.0 mi Variable 5.8 mph - N/A   Clear
12:51 PM 84.9 °F 88.8 °F 69.1 °F 59% 29.98 in 10.0 mi Variable 4.6 mph - N/A   Clear
1:51 PM 84.9 °F 88.8 °F 69.1 °F 59% 29.98 in 10.0 mi Variable 5.8 mph - N/A   Clear
2:51 PM 86.0 °F 89.4 °F 68.0 °F 55% 29.97 in 10.0 mi Variable 4.6 mph - N/A   Clear
3:51 PM 87.1 °F 91.3 °F 69.1 °F 55% 29.96 in 10.0 mi Variable 3.5 mph - N/A   Clear
4:51 PM 84.0 °F 89.0 °F 71.1 °F 65% 29.96 in 10.0 mi Calm Calm - N/A   Clear
5:51 PM 82.9 °F 87.0 °F 70.0 °F 65% 29.95 in 10.0 mi Calm Calm - N/A   Clear
6:51 PM 82.9 °F 87.0 °F 70.0 °F 65% 29.96 in 10.0 mi SSE 3.5 mph - N/A   Clear
7:51 PM 79.0 °F - 70.0 °F 74% 29.96 in 8.0 mi East 3.5 mph - N/A   Clear
8:51 PM 77.0 °F - 71.1 °F 82% 29.96 in 7.0 mi East 3.5 mph - N/A   Clear
9:51 PM 75.9 °F - 70.0 °F 82% 29.97 in 7.0 mi East 3.5 mph - N/A   Clear
10:51 PM 78.1 °F - 70.0 °F 76% 29.98 in 9.0 mi SE 3.5 mph - N/A   Clear
11:51 PM 79.0 °F - 70.0 °F 74% 29.99 in 10.0 mi SSW 3.5 mph - N/A   Clear